Location: Arbon
(43.0005°N, 0.7472°E)
Time: 19:15:59
(UTC+00:00)

Courier 1B Rocket - Pass Details

Date: 01 December 2020
Orbit: 920 x 1202 km, 28.2° (Epoch: 22 January)

Event Time Altitude Azimuth Distance (km) Brightness Sun altitude
Rises 09:19:07 0° 255° (WSW) 4,067 8.0 16.8°
Reaches altitude 10° 09:23:28 10° 234° (SW) 3,065 7.7 17.3°
Maximum altitude 09:27:20 15° 203° (SSW) 2,675 7.9 17.7°
Drops below altitude 10° 09:31:06 10° 171° (S) 2,969 9.0 18.0°
Sets 09:35:13 0° 149° (SSE) 3,862 9.9 18.4°
